TimeEST,TemperatureF,Dew PointF,Humidity,Sea Level PressureIn,VisibilityMPH,Wind Direction,Wind SpeedMPH,Gust SpeedMPH,PrecipitationIn,Events,Conditions,WindDirDegrees,DateUTC
12:31 AM,39.2,30.2,70,29.85,10.0,WNW,6.9,-,0.00,,Overcast,300,2013-02-28 05:31:00
12:53 AM,37.9,30.9,76,29.88,10.0,Variable,4.6,-,0.00,Rain,Light Rain,0,2013-02-28 05:53:00
1:19 AM,37.4,30.2,75,29.85,10.0,Variable,4.6,-,0.00,,Overcast,0,2013-02-28 06:19:00
1:53 AM,37.9,30.0,73,29.88,10.0,Variable,3.5,-,0.00,,Overcast,0,2013-02-28 06:53:00
2:53 AM,37.9,28.0,68,29.87,10.0,SW,8.1,-,N/A,,Overcast,230,2013-02-28 07:53:00
3:53 AM,37.9,27.0,65,29.86,10.0,Variable,5.8,-,N/A,,Overcast,0,2013-02-28 08:53:00
4:53 AM,37.0,28.0,70,29.86,10.0,SW,4.6,-,N/A,,Overcast,220,2013-02-28 09:53:00
5:53 AM,37.0,28.0,70,29.87,10.0,Calm,Calm,-,N/A,,Overcast,0,2013-02-28 10:53:00
6:53 AM,37.0,28.0,70,29.88,10.0,Variable,3.5,-,N/A,,Overcast,0,2013-02-28 11:53:00
7:28 AM,35.6,30.2,81,29.86,6.0,WNW,5.8,-,0.00,Snow,Light Snow,290,2013-02-28 12:28:00
7:43 AM,35.6,30.2,81,29.87,9.0,West,4.6,-,0.00,,Overcast,270,2013-02-28 12:43:00
7:53 AM,36.0,30.0,79,29.90,9.0,Variable,4.6,-,0.00,,Overcast,0,2013-02-28 12:53:00
8:53 AM,35.1,28.9,78,29.94,10.0,SW,3.5,-,0.00,,Overcast,230,2013-02-28 13:53:00
9:25 AM,35.6,26.6,70,29.91,10.0,Variable,5.8,-,N/A,,Overcast,0,2013-02-28 14:25:00
9:40 AM,37.4,24.8,60,29.91,10.0,WNW,8.1,-,N/A,,Overcast,300,2013-02-28 14:40:00
9:53 AM,37.0,26.1,65,29.94,10.0,WSW,3.5,-,N/A,,Overcast,250,2013-02-28 14:53:00
10:53 AM,39.0,23.0,53,29.95,10.0,Variable,6.9,16.1,N/A,,Mostly Cloudy,0,2013-02-28 15:53:00
11:53 AM,37.0,23.0,57,29.97,10.0,West,6.9,-,N/A,,Overcast,280,2013-02-28 16:53:00
12:53 PM,37.9,21.9,53,29.97,10.0,Variable,6.9,-,N/A,,Overcast,0,2013-02-28 17:53:00
1:53 PM,39.0,21.0,49,29.96,10.0,West,9.2,-,N/A,,Overcast,280,2013-02-28 18:53:00
2:53 PM,39.0,21.9,50,29.97,10.0,Variable,4.6,-,N/A,,Overcast,0,2013-02-28 19:53:00
3:53 PM,39.0,21.9,50,29.99,10.0,Variable,6.9,-,N/A,,Overcast,0,2013-02-28 20:53:00
4:53 PM,37.9,24.1,57,30.01,10.0,West,5.8,-,N/A,,Overcast,260,2013-02-28 21:53:00
5:53 PM,37.9,24.1,57,30.03,10.0,West,6.9,-,N/A,,Overcast,270,2013-02-28 22:53:00
6:25 PM,37.4,24.8,60,30.00,10.0,West,5.8,-,N/A,,Overcast,260,2013-02-28 23:25:00
6:53 PM,37.0,25.0,62,30.04,10.0,West,4.6,-,N/A,,Overcast,260,2013-02-28 23:53:00
7:53 PM,37.0,25.0,62,30.04,10.0,West,3.5,-,N/A,,Overcast,260,2013-03-01 00:53:00
8:53 PM,37.0,26.1,65,30.04,10.0,West,5.8,-,N/A,,Overcast,260,2013-03-01 01:53:00
9:53 PM,37.0,26.1,65,30.05,10.0,West,3.5,-,N/A,,Overcast,260,2013-03-01 02:53:00
10:53 PM,37.0,27.0,67,30.04,10.0,Calm,Calm,-,N/A,,Overcast,0,2013-03-01 03:53:00
11:53 PM,36.0,28.0,73,30.04,10.0,Calm,Calm,-,N/A,,Overcast,0,2013-03-01 04:53:00